STARLINK-1896 (46760 NORAD) Tracking and Keplerian Element Data

This shows tracking and keplerian element data for the satellite.

Feedback or suggestion? Click here.




ElementValue
Catalog46760
NameSTARLINK-1896
Epoch Orbit178
Epoch Day330.91667824
Epoch Year2020
RAAN2.369
Inclination53.0569
Eccentricity0.0001257
Argument of Perigee66.9183
Mean Anonmoly24.3687
Mean Motion15.49415464
Decay Rate-0.01082005
L11 46760U 20074X 20330.91667824 -.01082005 00000-0 -21393-1 0 9994
L22 46760 53.0569 2.3690 0001257 66.9183 24.3687 15.49415464 1780

Live tracking and technical data element details for STARLINK-1896 (NORAD 46760). STARLINK-1896 can be tracked NOW for your location showing map with azimuth and elevation plus other details from your city location.

Track the satellite on the map from your city or location and see movement details for azimuth, elevation, latitude, longitude, range, height, and movement on the map or in text.







IsCatalogInMostPopularTable: catalog: 46760, numindb: 6
Update: records affected: 1



GetName: 46760 STARLINK-1896

Hit Count: updated at: Thu, 26 Nov 2020 20:28:46 GMT